RH
41 33 30 30 27 21 28 31 30 36 38 39 39 38 32 28 34 30 30 29 30 29 24 26 28 40 74 86 91 89 91 91 94 97 98 98 97 97 98 98 96 94 92 91
35 36 28 28 31 30 33 34 44 36 40 40 38 34 31 29 28 26 24 24 26 28 30 28 30 32 50 64 78 86 87 90 92 86 90 91 94 95 95 98 98 96 95 92
30 28 29 30 35 30 37 35 36 30 39 36 36 25 23 21 33 28 26 28 27 27 26 27 28 31 37 53 75 82 81 88 89 86 95 98 97 96 98 98 98 97 97 97
32 37 33 37 37 31 37 32 32 37 34 32 43 27 32 28 27 24 18 19 20 21 28 30 30 30 33 39 60 74 85 87 91 92 96 94 92 94 93 90 96 97 95 96
36 40 38 40 33 31 34 39 36 44 50 60 53 38 30 33 24 18 18 28 37 38 37 41 43 37 40 43 56 86 92 94 94 95 93 96 95 95 96 96 95 96 97 96
46 51 42 35 53 39 45 41 46 67 50 47 46 35 27 21 20 38 27 32 35 37 39 40 44 46 55 66 78 88 94 97 97 98 97 97 96 97 98 96 97 97 97 98
54 53 55 48 47 47 38 31 40 43 63 46 55 52 33 27 26 25 24 28 38 48 51 52 52 49 54 67 72 81 88 91 96 97 97 96 96 96 96 95 95 96 96 97
55 56 51 48 42 46 41 31 44 41 56 42 57 54 29 30 32 34 38 58 56 53 56 59 59 59 59 62 72 71 75 79 85 92 95 95 94 96 95 95 95 94 93 92
50 42 55 54 49 40 50 42 36 58 93 74 45 37 23 29 32 44 45 46 49 49 54 57 59 61 59 58 61 65 67 69 73 76 84 87 92 94 94 93 94 93 93 94
39 44 64 58 49 53 46 44 53 64 52 55 42 42 27 26 47 50 46 46 47 48 48 49 53 55 58 62 66 66 68 66 66 72 77 79 84 88 91 92 92 92 92 94
40 48 68 59 57 54 51 51 52 48 54 57 61 35 30 31 46 45 46 42 45 47 47 47 49 51 53 56 58 63 64 67 68 71 74 77 80 83 87 91 90 91 92 94
47 53 80 64 61 62 64 50 48 55 59 72 64 46 39 44 45 44 42 41 45 59 44 48 49 50 49 51 54 57 59 64 67 70 74 77 79 82 85 87 87 90 92 93
53 70 85 70 62 70 62 53 50 53 66 67 67 52 40 49 48 49 46 56 41 49 48 51 53 56 57 55 57 58 60 64 70 72 76 77 78 80 82 84 86 88 91 92
62 73 61 56 60 58 62 61 56 49 73 54 54 43 46 46 53 58 56 55 54 54 58 62 68 70 69 66 66 68 68 72 76 75 76 78 80 82 83 86 88 89 90 92
66 85 82 89 87 83 87 82 85 57 45 56 47 44 40 45 57 54 53 55 65 68 68 70 71 73 73 72 75 74 75 77 79 77 78 76 81 83 85 87 88 90 92 92
80 99 94 95 89 88 88 88 91 95 95 93 92 84 62 56 56 51 55 70 71 72 68 68 69 70 69 68 70 69 74 76 78 76 79 78 85 89 90 90 89 90 91 92
89 99 98 98 95 98 98 88 88 88 89 82 84 61 58 60 63 74 77 64 64 68 68 68 70 71 73 74 76 71 71 77 84 86 85 86 87 91 92 93 93 93 92 92
95 98 99 98 99 96 70 70 71 68 66 70 69 70 67 69 70 69 64 64 64 66 68 71 73 74 75 79 79 82 83 83 82 82 88 92 90 92 94 94 94 94 94 96
91 97 98 97 96 79 66 65 82 84 74 70 68 63 72 74 76 84 72 73 75 75 74 77 80 82 82 84 84 86 82 84 83 81 81 84 91 93 99 99 97 97 98 98
90 87 91 97 96 95 66 58 50 45 69 62 55 76 73 70 76 74 82 72 68 70 79 80 80 84 86 84 87 88 84 85 82 81 80 87 93 96 97 98 98 97 97 96
99 99 97 98 96 86 72 57 46 60 54 88 78 76 75 72 68 60 68 67 76 77 81 80 85 87 86 87 88 88 87 85 85 88 90 94 95 97 97 98 98 97 97 97
90 93 97 96 97 90 65 64 54 56 86 83 76 74 75 79 79 75 73 74 73 78 82 81 88 89 87 88 94 91 91 85 90 91 94 95 98 99 97 99 98 97 98 97
81 77 84 82 80 66 76 76 78 81 82 81 73 75 74 73 72 66 75 77 77 80 83 84 91 91 87 92 96 94 87 92 91 92 92 95 95 98 97 98 97 98 98 99
85 88 84 77 77 86 74 86 81 76 74 67 62 68 69 66 65 70 75 77 83 91 90 92 94 91 89 88 94 94 93 95 99 99 96 95 98 98 97 98 98 97 98 96
68 78 80 81 82 84 82 85 62 56 51 57 66 70 68 68 65 71 78 86 91 93 95 96 94 92 91 90 90 92 94 93 99 99 97 97 98 99 98 97 97 97 96 96
72 66 64 70 67 64 68 64 59 61 66 64 68 69 69 73 76 82 88 93 94 93 94 91 91 94 88 92 92 91 95 96 98 97 97 92 93 99 99 98 97 95 97 94
Wind_Speed
2 5 7 10 6 3 6 4 4 0 1 2 5 7 12 11 4 10 10 11 10 13 10 10 9 10 9 8 9 12 12 13 9 7 8 7 10 6 5 5 7 10 11 12
5 4 6 6 4 4 4 4 1 1 1 1 5 11 11 11 8 9 9 10 11 7 6 9 8 8 10 14 16 12 15 13 13 11 9 7 6 5 4 4 6 9 11 13
7 2 9 6 4 5 2 4 3 3 2 3 5 10 6 6 3 5 8 8 7 9 10 7 7 8 7 9 13 15 17 15 14 14 4 3 4 2 2 3 5 8 9 10
3 2 7 5 4 6 4 5 5 4 4 4 2 7 6 6 11 8 10 7 9 8 5 5 6 6 7 9 6 9 10 13 11 10 8 11 10 10 9 8 5 6 10 10
6 7 7 4 5 5 4 4 5 3 4 3 4 2 9 4 7 8 9 5 6 8 7 8 9 5 4 1 5 6 7 7 7 9 9 8 8 5 2 3 5 6 6 9
2 1 2 5 3 2 9 7 8 5 3 1 6 6 7 4 2 2 5 6 7 8 8 7 6 7 6 6 5 3 7 6 7 7 7 10 11 7 4 4 4 4 4 5
1 1 1 3 7 4 4 7 3 4 3 6 1 2 10 6 5 3 6 6 8 8 8 8 10 8 8 8 6 4 5 5 6 7 8 9 10 7 9 7 6 5 5 4
8 3 8 4 6 9 6 7 8 8 5 4 2 6 8 6 4 2 3 3 4 7 7 7 7 6 7 6 5 4 4 4 5 6 6 5 6 4 6 6 5 6 7 6
6 4 1 1 3 6 5 4 5 8 3 4 4 6 12 5 6 6 7 7 8 8 6 7 7 5 6 6 6 5 3 2 2 5 5 6 6 6 7 7 5 5 5 5
8 4 1 1 3 3 4 8 4 4 2 3 4 4 6 3 6 4 7 6 5 5 7 7 7 8 7 6 6 5 5 4 4 4 4 5 6 6 6 6 7 8 7 7
6 5 1 3 6 9 3 3 4 5 5 6 1 7 6 5 8 9 6 6 5 4 4 5 5 4 3 3 5 6 6 7 7 5 5 6 6 6 5 6 7 8 7 7
7 6 5 6 1 1 2 6 6 6 5 3 4 7 4 9 8 9 5 6 5 3 6 6 6 6 7 7 7 6 6 7 7 6 7 7 7 5 6 7 7 6 8 7
8 3 4 4 3 2 4 4 4 5 4 8 7 6 2 4 5 4 5 1 3 5 7 7 8 8 7 7 7 7 7 8 7 6 7 8 8 7 7 7 7 7 7 8
7 4 8 12 5 7 6 6 6 6 4 5 9 5 5 9 5 2 2 2 4 5 6 6 6 6 6 6 6 7 7 6 7 8 7 8 8 7 7 7 7 7 7 7
4 5 3 3 5 5 4 6 8 11 13 9 8 10 7 8 5 3 2 5 7 7 7 6 6 6 4 3 3 4 3 3 4 6 6 6 6 7 8 8 8 7 7 7
1 4 3 1 2 2 2 7 7 3 1 5 3 9 9 8 4 7 6 6 5 4 4 7 7 9 10 8 7 6 6 6 6 7 8 8 6 6 6 7 7 7 7 7
5 5 3 4 5 5 6 12 10 5 6 7 9 5 5 3 0 2 4 6 5 4 5 6 7 6 7 8 8 12 12 8 7 6 7 7 7 9 9 8 7 7 7 6
9 7 3 4 5 6 3 1 8 16 10 10 9 3 5 5 4 5 4 4 4 5 4 5 6 7 8 7 7 7 8 9 10 10 6 4 6 6 7 8 8 7 5 4
3 6 3 5 5 6 4 6 7 9 8 12 12 6 4 2 3 2 4 2 2 3 3 4 4 5 7 8 8 8 11 8 8 9 10 9 7 9 8 7 7 5 3 3
3 3 3 3 5 9 5 1 5 5 5 4 7 8 7 6 4 4 4 2 5 6 4 5 6 5 7 8 6 7 10 9 11 10 11 9 8 8 11 9 8 4 3 3
4 3 7 3 3 8 7 7 3 7 10 3 6 7 6 4 4 3 5 5 3 4 5 5 5 6 8 7 6 8 8 11 8 7 8 7 6 6 7 6 3 4 4 3
9 7 5 4 3 10 7 3 9 5 3 6 5 4 3 2 1 3 5 6 6 7 6 4 5 6 7 6 3 7 9 9 7 8 8 7 8 5 5 4 4 3 3 2
3 7 7 9 8 1 6 3 2 4 6 4 6 3 2 4 4 5 5 7 7 7 6 4 5 7 8 4 3 7 9 6 10 10 10 9 10 6 4 4 5 3 1 2
4 2 3 5 4 4 4 4 5 4 6 5 4 3 4 5 7 7 7 6 5 4 5 3 4 6 9 6 5 7 8 6 6 9 9 10 10 7 4 2 2 4 3 3
5 7 7 4 2 3 5 2 6 2 1 1 2 2 3 5 8 7 6 5 4 5 3 3 5 6 10 8 10 6 6 7 7 7 7 8 6 5 4 3 3 3 3 3
6 7 6 6 6 5 5 6 3 4 5 6 5 6 5 4 9 6 8 3 3 4 2 6 7 7 11 7 10 8 4 6 7 8 7 9 8 3 3 3 3 6 6 5
Wind_Direction
24 105 185 196 171 134 135 143 157 199 349 194 249 263 278 279 272 272 260 263 252 248 251 234 230 211 201 206 192 195 195 200 183 189 194 208 215 209 208 205 197 198 200 196
49 216 200 124 151 116 126 121 197 16 81 160 344 282 261 271 251 233 248 262 255 265 277 256 235 210 204 206 208 201 204 194 197 203 208 210 199 212 207 188 191 202 203 202
149 225 138 133 139 146 176 163 179 170 45 45 345 298 321 297 266 272 258 258 282 260 274 273 262 230 211 209 202 202 205 199 198 201 143 85 68 71 137 197 210 209 202 204
182 135 144 138 154 134 174 193 134 138 93 235 20 283 308 309 304 290 302 309 295 297 291 288 274 262 219 231 207 208 204 201 197 180 178 195 210 217 219 218 204 196 202 207
227 164 140 131 183 163 183 103 118 90 96 63 321 61 272 330 291 303 326 6 23 18 34 30 23 359 22 325 211 196 178 183 170 181 187 193 210 221 189 182 188 199 197 210
116 359 140 169 91 112 150 81 54 54 81 343 234 158 285 224 213 352 1 0 11 7 10 13 3 25 23 30 55 131 154 158 152 159 178 192 209 202 184 198 211 207 207 214
94 85 352 138 83 40 83 80 10 352 9 221 44 106 249 276 273 235 306 346 355 2 10 4 7 10 24 28 45 94 135 154 177 182 192 203 213 196 208 205 213 197 216 216
149 223 169 195 168 167 183 153 157 196 198 256 91 235 248 205 319 243 18 22 28 30 13 14 20 11 43 26 43 69 127 159 185 211 224 221 226 221 226 215 211 219 220 222
139 235 73 90 132 133 185 178 157 104 23 58 225 289 306 86 54 65 55 39 16 20 5 32 28 31 26 24 28 25 13 38 197 226 234 233 230 232 239 237 226 233 223 213
196 122 30 124 113 38 148 162 82 7 141 256 286 270 228 109 96 89 44 42 40 57 48 45 21 16 9 5 358 4 4 341 317 290 266 250 237 232 240 237 239 236 236 217
142 109 194 121 206 163 138 168 68 120 143 168 204 257 225 140 147 101 41 24 33 35 25 48 28 360 353 341 0 349 354 337 325 337 303 282 279 265 256 250 254 244 241 221
189 125 157 196 307 261 152 175 148 144 213 240 150 266 20 135 119 106 69 12 1 348 15 3 3 2 6 359 359 351 344 340 335 323 298 304 297 298 274 262 265 257 246 234
179 197 83 18 11 357 197 194 140 109 83 202 139 256 336 113 122 121 120 73 329 2 4 2 11 11 5 6 9 10 10 357 346 327 337 329 319 314 291 280 275 267 261 251
95 120 179 204 179 142 184 185 173 154 166 186 218 150 209 234 271 306 93 341 349 35 14 6 13 15 9 7 10 3 358 2 352 347 348 341 331 316 297 289 279 270 259 257
103 130 117 77 112 110 149 166 174 195 217 185 231 197 220 224 273 295 3 50 68 36 19 6 356 349 348 349 334 337 311 311 332 327 321 307 303 307 308 304 295 284 275 266
21 110 95 86 95 63 192 201 194 205 188 282 179 260 216 266 330 345 17 98 81 55 13 357 352 349 347 343 338 335 340 339 344 336 325 317 315 312 309 304 296 285 276 271
103 121 115 184 136 82 282 223 202 178 185 154 224 214 163 165 129 120 102 83 66 27 7 356 345 334 330 334 339 337 332 332 325 307 308 316 326 322 318 313 308 302 294 289
147 133 137 135 128 209 231 350 220 217 226 212 263 180 146 159 153 127 120 109 41 350 350 349 338 329 326 328 329 322 326 326 325 325 301 271 294 292 303 312 305 300 291 284
148 135 134 159 197 319 291 190 156 166 249 216 236 130 140 160 113 188 170 78 15 324 316 306 318 311 317 319 319 328 322 322 320 321 320 325 325 321 310 293 288 284 278 285
69 84 121 146 178 198 237 346 139 98 278 172 144 145 146 143 152 244 180 342 316 312 305 313 323 320 309 307 329 322 311 315 312 313 314 312 313 309 308 305 307 284 271 256
142 140 201 183 190 279 215 208 196 100 240 166 127 149 151 156 177 175 349 326 302 282 295 300 305 292 289 302 316 298 298 290 283 291 292 290 288 290 280 292 278 297 291 290
175 162 190 132 116 260 169 46 172 195 59 136 139 128 133 164 297 290 283 272 287 291 297 293 283 278 278 282 267 275 278 283 293 300 298 296 296 295 297 285 288 292 287 285
209 178 179 176 204 185 187 180 144 133 141 156 114 91 47 339 297 294 240 239 252 259 267 274 267 293 298 272 222 278 284 307 312 312 305 304 302 294 290 291 288 291 308 270
269 168 158 83 271 187 153 101 112 104 109 130 139 165 180 239 276 282 280 254 241 229 260 249 290 292 295 296 256 241 283 292 296 289 291 295 294 293 291 285 272 284 288 257
187 136 162 260 311 29 340 279 120 69 62 184 205 175 254 283 279 248 263 276 247 248 247 230 247 265 272 286 290 281 283 289 292 285 284 282 276 274 281 257 234 229 255 256
178 169 170 215 172 143 181 178 121 209 233 253 274 299 320 296 289 316 303 265 255 278 273 301 287 278 286 276 284 288 278 287 282 287 288 286 283 259 258 268 290 260 243 241